Starlink 3784

operational
NORAD ID: 52275 Int'l Des: 2022-041 Owner: SPXS Country: US Constellation: starlink
LEOCIRCULAR

关于 Starlink 3784

正在加载描述...

实时位置

正在加载3D地球...

即将过境

高度历史

Altitude vs Time

uPlot chart will show altitude changes over time

两行轨道根数

1 52275U 22041Q 25343.46351414 .00000431 00000-0 45194-4 0 9990
2 52275 53.2173 154.1607 0001338 84.8478 275.2667 15.08833991200747
Epoch: Dec 9, 2025 • Age: 11 hours

当前状态

高度 545.3 km
速度 7.59 km/s
星下点 -18.94°S, 86.2°E
发射日期 Apr 21, 2022
运行时间 3.6 years
类型 internet

技术详情

分类 Payload
质量 297.00 kg
干质量 275.00 kg
总质量 297.00 kg
长度 0.20 m
直径 2.80 m
跨度 9.00 m
形状 Box + pan
制造商 SPXS
平台类型 Starlink
阶段状态 In Orbit
所有者/国家 SPXS/US

大型星座

Loading constellations...